Location: Hains Lake
(37.8540°N, 99.8578°W)
Time: 10:52:53
(UTC+00:00)

Tiros 1 despin weight - Pass Details

Date: 28 April 2021
Orbit: 593 x 642 km, 48.2° (Epoch: 07 May)

Event Time Altitude Azimuth Distance (km) Brightness Sun altitude
Rises 10:38:45 0° 282° (WNW) 2,929 - -13.0°
Exits shadow 10:40:35 - 290° (WNW) 2,295 ? -12.7°
Reaches altitude 10° 10:41:28 10° 296° (WNW) 2,014 ? -12.6°
Maximum altitude 10:45:14 24° 351° (N) 1,304 ? -11.9°
Drops below altitude 10° 10:48:59 10° 45° (NE) 1,992 ? -11.3°
Sets 10:51:39 0° 60° (ENE) 2,889 ? -10.8°
